map of CGB home
Great Circle Mapper logo
CGB - Airport
Location
City:  Cuiabá (Várzea Grande)), Mato Grosso, Brazil
Name:Marechal Rondon International Airport
ICAO / IATA:SBCY / CGB

Details
Type:Airport (Aerodrome, Airfield)
Use:Public/Civil, International (customs port of entry)
Latitude:15°39'11"S (-15.652930)
Longitude:56°07'00"W (-56.116718)
Datum:WGS 1984
Elevation:617 ft (188 m)
Variation:17.00°W (WMM2015 magnetic declination)
-0.15° annual change
Runways:1
Longest:7546 × 148 ft (2300 × 45 m), paved

Time
Time Zone:UTC-4 (DST-3)
Local Time:

Weather
METAR:SBCY 291700Z 24003KT CAVOK 29/19 Q1012
TAF:SBCY 291000Z 2912/3012 18005KT 9999 SCT010 TX32/2918Z TN23/3007Z
BECMG 2916/2918 16010KT SCT020 FEW025TCU
BECMG 2922/2924 14005KT FEW020
RMK PEH

Related Locations
Nearby:
Farthest:RPLJ: 12320 mi / 19827 km
Jomalig Island, Quezon, PH

Find:

   beyond  
but within

Other Information
Maps:
NOTAMs:
Links:
Sources:

  
flag of Brazil
flag of Mato Grosso
  

Sectional Chart

Flight Planning
at skyvector.com

Satellite Image

Google Maps Satellite View

 

Copyright © 2004-2015 Karl L. Swartz. All rights reserved.
The Great Circle Mapper name and logo are trademarks of the Great Circle Mapper.
All other trademarks mentioned herein belong to their respective owners.
Please see credits for attibutions and further copyright information.

  Follow gcmap on Facebook Follow gcmap on Twitter Follow gcmap on Google+

hCard Microformat

Geo Microformat